Time,TemperatureF,DewpointF,PressureIn,WindDirection,WindDirectionDegrees,WindSpeedMPH,WindSpeedGustMPH,Humidity,HourlyPrecipIn,Conditions,Clouds,dailyrainin,SoftwareType,DateUTC
2013-02-03 00:03:00,48.2,35.4,30.24,NNE,13,0.0,0.0,61,0.00,,CLR,0.00,VWS V14.01,2013-02-03 06:03:00,
2013-02-03 00:08:00,47.7,35.3,30.24,NNE,13,0.0,0.0,62,0.00,,CLR,0.00,VWS V14.01,2013-02-03 06:08:00,
2013-02-03 00:13:00,47.6,35.2,30.24,NNE,13,0.0,0.0,62,0.00,,CLR,0.00,VWS V14.01,2013-02-03 06:13:00,
2013-02-03 00:18:00,47.4,35.5,30.23,NNE,13,0.0,0.0,63,0.00,,CLR,0.00,VWS V14.01,2013-02-03 06:18:00,
2013-02-03 00:23:00,47.4,35.0,30.23,NNE,13,0.0,0.0,62,0.00,,CLR,0.00,VWS V14.01,2013-02-03 06:23:00,
2013-02-03 00:28:00,47.4,35.0,30.23,NNE,13,0.0,0.0,62,0.00,,CLR,0.00,VWS V14.01,2013-02-03 06:28:00,
2013-02-03 00:33:00,47.3,35.0,30.24,NNE,13,0.0,0.0,62,0.00,,CLR,0.00,VWS V14.01,2013-02-03 06:33:00,
2013-02-03 00:38:00,47.3,35.0,30.24,NNE,13,0.0,0.0,62,0.00,,CLR,0.00,VWS V14.01,2013-02-03 06:38:00,
2013-02-03 00:43:00,47.1,34.8,30.24,NNE,13,0.0,0.0,62,0.00,,CLR,0.00,VWS V14.01,2013-02-03 06:43:00,
2013-02-03 00:48:00,46.8,34.5,30.24,NNE,13,0.0,0.0,62,0.00,,CLR,0.00,VWS V14.01,2013-02-03 06:48:00,
2013-02-03 00:53:00,46.7,34.4,30.24,NNE,13,0.0,0.0,62,0.00,,CLR,0.00,VWS V14.01,2013-02-03 06:53:00,
2013-02-03 00:58:00,46.5,34.2,30.24,NNE,13,0.0,0.0,62,0.00,,CLR,0.00,VWS V14.01,2013-02-03 06:58:00,
2013-02-03 01:03:00,46.4,34.1,30.23,NNE,13,0.0,0.0,62,0.00,,CLR,0.00,VWS V14.01,2013-02-03 07:03:00,
2013-02-03 01:08:00,46.2,34.3,30.23,NNE,13,0.0,0.0,63,0.00,,CLR,0.00,VWS V14.01,2013-02-03 07:08:00,
2013-02-03 01:13:00,46.1,34.2,30.23,NNE,13,0.0,0.0,63,0.00,,CLR,0.00,VWS V14.01,2013-02-03 07:13:00,
2013-02-03 01:18:00,46.0,34.1,30.23,NNE,13,0.0,0.0,63,0.00,,CLR,0.00,VWS V14.01,2013-02-03 07:18:00,
2013-02-03 01:23:00,46.0,34.1,30.23,NNE,13,0.0,0.0,63,0.00,,CLR,0.00,VWS V14.01,2013-02-03 07:23:00,
2013-02-03 01:29:00,46.1,34.2,30.23,NNE,13,0.0,0.0,63,0.00,,CLR,0.00,VWS V14.01,2013-02-03 07:29:00,
2013-02-03 01:34:00,46.1,34.2,30.23,NNE,13,0.0,0.0,63,0.00,,CLR,0.00,VWS V14.01,2013-02-03 07:34:00,
2013-02-03 01:39:00,46.0,34.1,30.23,NNE,13,0.0,0.0,63,0.00,,CLR,0.00,VWS V14.01,2013-02-03 07:39:00,
2013-02-03 01:44:00,46.0,34.5,30.23,NNE,13,0.0,0.0,64,0.00,,CLR,0.00,VWS V14.01,2013-02-03 07:44:00,
2013-02-03 01:49:00,45.7,34.2,30.23,NNE,13,0.0,0.0,64,0.00,,CLR,0.00,VWS V14.01,2013-02-03 07:49:00,
2013-02-03 01:54:00,45.5,34.0,30.23,NNE,13,0.0,1.0,64,0.00,,CLR,0.00,VWS V14.01,2013-02-03 07:54:00,
2013-02-03 01:59:00,45.4,34.3,30.23,NNE,13,0.0,1.0,65,0.00,,CLR,0.00,VWS V14.01,2013-02-03 07:59:00,
2013-02-03 02:04:00,45.2,34.2,30.23,NNE,13,0.0,0.0,65,0.00,,CLR,0.00,VWS V14.01,2013-02-03 08:04:00,
2013-02-03 02:09:00,45.1,34.4,30.23,NNE,13,0.0,0.0,66,0.00,,CLR,0.00,VWS V14.01,2013-02-03 08:09:00,
2013-02-03 02:14:00,44.9,34.6,30.23,NNE,13,0.0,0.0,67,0.00,,CLR,0.00,VWS V14.01,2013-02-03 08:14:00,
2013-02-03 02:19:00,44.8,34.5,30.23,NNE,13,0.0,0.0,67,0.00,,CLR,0.00,VWS V14.01,2013-02-03 08:19:00,
2013-02-03 02:24:00,44.8,34.5,30.23,North,5,3.0,5.0,67,0.00,,CLR,0.00,VWS V14.01,2013-02-03 08:24:00,
2013-02-03 02:29:00,44.9,35.0,30.23,North,355,2.0,5.0,68,0.00,,CLR,0.00,VWS V14.01,2013-02-03 08:29:00,
2013-02-03 02:34:00,45.1,35.2,30.22,North,355,0.0,4.0,68,0.00,,CLR,0.00,VWS V14.01,2013-02-03 08:34:00,
2013-02-03 02:39:00,45.1,35.2,30.22,North,355,0.0,5.0,68,0.00,,CLR,0.00,VWS V14.01,2013-02-03 08:39:00,
2013-02-03 02:44:00,44.9,35.0,30.22,NNW,346,0.0,5.0,68,0.00,,CLR,0.00,VWS V14.01,2013-02-03 08:44:00,
2013-02-03 02:49:00,44.9,35.4,30.22,NNW,347,0.0,5.0,69,0.00,,CLR,0.00,VWS V14.01,2013-02-03 08:49:00,
2013-02-03 02:54:00,44.9,35.4,30.22,NNW,342,1.0,2.0,69,0.00,,CLR,0.00,VWS V14.01,2013-02-03 08:54:00,
2013-02-03 02:59:00,44.8,35.3,30.22,NNW,342,0.0,2.0,69,0.00,,CLR,0.00,VWS V14.01,2013-02-03 08:59:00,
2013-02-03 03:04:00,44.5,35.3,30.22,NNW,342,2.0,4.0,70,0.00,,CLR,0.00,VWS V14.01,2013-02-03 09:04:00,
2013-02-03 03:09:00,44.6,35.4,30.22,NNW,338,0.0,4.0,70,0.00,,CLR,0.00,VWS V14.01,2013-02-03 09:09:00,
2013-02-03 03:14:00,44.8,35.6,30.22,NNW,340,0.0,4.0,70,0.00,,CLR,0.00,VWS V14.01,2013-02-03 09:14:00,
2013-02-03 03:19:00,44.9,35.7,30.22,NNW,340,0.0,5.0,70,0.00,,CLR,0.00,VWS V14.01,2013-02-03 09:19:00,
2013-02-03 03:24:00,45.1,35.9,30.22,NNW,340,0.0,4.0,70,0.00,,CLR,0.00,VWS V14.01,2013-02-03 09:24:00,
2013-02-03 03:29:00,45.2,35.7,30.22,NNW,340,1.0,4.0,69,0.00,,CLR,0.00,VWS V14.01,2013-02-03 09:29:00,
2013-02-03 03:34:00,45.2,35.7,30.22,NNW,340,0.0,3.0,69,0.00,,CLR,0.00,VWS V14.01,2013-02-03 09:34:00,
2013-02-03 03:39:00,45.2,35.7,30.22,NNW,340,0.0,4.0,69,0.00,,CLR,0.00,VWS V14.01,2013-02-03 09:39:00,
2013-02-03 03:44:00,45.2,35.7,30.22,NNW,341,0.0,4.0,69,0.00,,CLR,0.00,VWS V14.01,2013-02-03 09:44:00,
2013-02-03 03:49:00,45.2,35.3,30.22,NNW,341,0.0,4.0,68,0.00,,CLR,0.00,VWS V14.01,2013-02-03 09:49:00,
2013-02-03 03:54:00,45.4,35.5,30.22,NNW,341,0.0,1.0,68,0.00,,CLR,0.00,VWS V14.01,2013-02-03 09:54:00,
2013-02-03 03:59:00,45.4,35.5,30.22,NNW,341,1.0,3.0,68,0.00,,CLR,0.00,VWS V14.01,2013-02-03 09:59:00,
2013-02-03 04:04:00,45.4,35.5,30.23,NNW,341,0.0,0.0,68,0.00,,CLR,0.00,VWS V14.01,2013-02-03 10:04:00,
2013-02-03 04:09:00,45.2,34.9,30.23,NNW,341,0.0,0.0,67,0.00,,CLR,0.00,VWS V14.01,2013-02-03 10:09:00,
2013-02-03 04:14:00,45.2,34.9,30.23,NNW,341,0.0,0.0,67,0.00,,CLR,0.00,VWS V14.01,2013-02-03 10:14:00,
2013-02-03 04:19:00,45.2,34.9,30.23,NNW,341,0.0,0.0,67,0.00,,CLR,0.00,VWS V14.01,2013-02-03 10:19:00,
2013-02-03 04:24:00,45.1,34.8,30.23,NNW,341,0.0,0.0,67,0.00,,CLR,0.00,VWS V14.01,2013-02-03 10:24:00,
2013-02-03 04:29:00,44.9,34.6,30.23,NNW,341,0.0,0.0,67,0.00,,CLR,0.00,VWS V14.01,2013-02-03 10:29:00,
2013-02-03 04:34:00,44.8,34.5,30.22,NNW,341,0.0,0.0,67,0.00,,CLR,0.00,VWS V14.01,2013-02-03 10:34:00,
2013-02-03 04:39:00,44.6,34.3,30.22,NNW,341,0.0,0.0,67,0.00,,CLR,0.00,VWS V14.01,2013-02-03 10:39:00,
2013-02-03 04:44:00,44.2,34.7,30.22,NNW,341,0.0,0.0,69,0.00,,CLR,0.00,VWS V14.01,2013-02-03 10:44:00,
2013-02-03 04:49:00,43.5,34.0,30.23,NNW,341,0.0,0.0,69,0.00,,CLR,0.00,VWS V14.01,2013-02-03 10:49:00,
2013-02-03 04:54:00,43.1,34.0,30.23,NNW,341,0.0,0.0,70,0.00,,CLR,0.00,VWS V14.01,2013-02-03 10:54:00,
2013-02-03 04:59:00,42.6,33.5,30.23,NNW,341,0.0,0.0,70,0.00,,CLR,0.00,VWS V14.01,2013-02-03 10:59:00,
2013-02-03 05:04:00,42.3,33.2,30.23,NNW,341,0.0,0.0,70,0.00,,CLR,0.00,VWS V14.01,2013-02-03 11:04:00,
2013-02-03 05:09:00,42.1,33.4,30.23,NNW,341,0.0,0.0,71,0.00,,CLR,0.00,VWS V14.01,2013-02-03 11:09:00,
2013-02-03 05:14:00,41.6,33.3,30.23,NNW,341,0.0,0.0,72,0.00,,CLR,0.00,VWS V14.01,2013-02-03 11:14:00,
2013-02-03 05:19:00,41.3,33.0,30.23,NNW,341,0.0,0.0,72,0.00,,CLR,0.00,VWS V14.01,2013-02-03 11:19:00,
2013-02-03 05:24:00,41.2,33.2,30.23,NNW,341,0.0,0.0,73,0.00,,CLR,0.00,VWS V14.01,2013-02-03 11:24:00,
2013-02-03 05:29:00,41.1,33.1,30.23,NNW,341,0.0,0.0,73,0.00,,CLR,0.00,VWS V14.01,2013-02-03 11:29:00,
2013-02-03 05:34:00,41.1,33.5,30.23,NNW,341,0.0,0.0,74,0.00,,CLR,0.00,VWS V14.01,2013-02-03 11:34:00,
2013-02-03 05:39:00,40.8,32.8,30.23,NNW,341,0.0,0.0,73,0.00,,CLR,0.00,VWS V14.01,2013-02-03 11:39:00,
2013-02-03 05:44:00,40.5,32.9,30.23,NNW,341,0.0,0.0,74,0.00,,CLR,0.00,VWS V14.01,2013-02-03 11:44:00,
2013-02-03 05:49:00,40.5,32.9,30.23,NNW,341,0.0,0.0,74,0.00,,CLR,0.00,VWS V14.01,2013-02-03 11:49:00,
2013-02-03 05:54:00,40.3,32.7,30.23,NNW,341,0.0,0.0,74,0.00,,CLR,0.00,VWS V14.01,2013-02-03 11:54:00,
2013-02-03 05:59:00,40.2,32.6,30.23,NNW,341,0.0,0.0,74,0.00,,CLR,0.00,VWS V14.01,2013-02-03 11:59:00,
2013-02-03 06:04:00,40.2,32.9,30.23,NNW,341,0.0,0.0,75,0.00,,CLR,0.00,VWS V14.01,2013-02-03 12:04:00,
2013-02-03 06:09:00,40.1,32.8,30.23,NNW,341,0.0,0.0,75,0.00,,CLR,0.00,VWS V14.01,2013-02-03 12:09:00,
2013-02-03 06:14:00,40.1,32.8,30.23,NNW,341,0.0,0.0,75,0.00,,CLR,0.00,VWS V14.01,2013-02-03 12:14:00,
2013-02-03 06:19:00,39.9,32.6,30.23,NNW,341,0.0,0.0,75,0.00,,CLR,0.00,VWS V14.01,2013-02-03 12:19:00,
2013-02-03 06:24:00,39.9,32.6,30.23,NNW,341,0.0,0.0,75,0.00,,CLR,0.00,VWS V14.01,2013-02-03 12:24:00,
2013-02-03 06:29:00,39.8,32.9,30.23,NNW,341,0.0,0.0,76,0.00,,CLR,0.00,VWS V14.01,2013-02-03 12:29:00,
2013-02-03 06:34:00,39.6,32.7,30.23,NNW,341,0.0,0.0,76,0.00,,CLR,0.00,VWS V14.01,2013-02-03 12:34:00,
2013-02-03 06:39:00,39.5,32.6,30.23,NNW,341,0.0,0.0,76,0.00,,CLR,0.00,VWS V14.01,2013-02-03 12:39:00,
2013-02-03 06:44:00,39.3,32.4,30.23,NNW,341,0.0,0.0,76,0.00,,CLR,0.00,VWS V14.01,2013-02-03 12:44:00,
2013-02-03 06:49:00,39.2,32.3,30.23,NNW,341,0.0,0.0,76,0.00,,CLR,0.00,VWS V14.01,2013-02-03 12:49:00,
2013-02-03 06:54:00,39.1,32.2,30.23,NNW,341,0.0,0.0,76,0.00,,CLR,0.00,VWS V14.01,2013-02-03 12:54:00,
2013-02-03 06:59:00,38.9,32.0,30.24,NNW,341,0.0,0.0,76,0.00,,CLR,0.00,VWS V14.01,2013-02-03 12:59:00,
2013-02-03 07:05:00,38.9,32.3,30.24,NNW,341,0.0,0.0,77,0.00,,CLR,0.00,VWS V14.01,2013-02-03 13:05:00,
2013-02-03 07:10:00,38.8,32.2,30.24,NNW,341,0.0,0.0,77,0.00,,CLR,0.00,VWS V14.01,2013-02-03 13:10:00,
2013-02-03 07:15:00,38.6,32.0,30.24,NNW,341,0.0,0.0,77,0.00,,CLR,0.00,VWS V14.01,2013-02-03 13:15:00,
2013-02-03 07:20:00,38.6,32.3,30.24,NNW,341,0.0,0.0,78,0.00,,CLR,0.00,VWS V14.01,2013-02-03 13:20:00,
2013-02-03 07:25:00,38.5,32.2,30.24,NNW,341,0.0,0.0,78,0.00,,CLR,0.00,VWS V14.01,2013-02-03 13:25:00,
2013-02-03 07:30:00,38.5,32.2,30.24,NNW,341,0.0,0.0,78,0.00,,CLR,0.00,VWS V14.01,2013-02-03 13:30:00,
2013-02-03 07:35:00,38.3,32.0,30.24,NNW,341,0.0,0.0,78,0.00,,CLR,0.00,VWS V14.01,2013-02-03 13:35:00,
2013-02-03 07:40:00,38.2,32.0,30.24,NNW,341,0.0,0.0,78,0.00,,CLR,0.00,VWS V14.01,2013-02-03 13:40:00,
2013-02-03 07:45:00,37.9,32.3,30.24,NNW,341,0.0,0.0,80,0.00,,CLR,0.00,VWS V14.01,2013-02-03 13:45:00,
2013-02-03 07:50:00,38.5,33.2,30.24,NNW,341,0.0,0.0,81,0.00,,CLR,0.00,VWS V14.01,2013-02-03 13:50:00,
2013-02-03 07:55:00,39.2,34.2,30.24,NNW,341,0.0,0.0,82,0.00,,CLR,0.00,VWS V14.01,2013-02-03 13:55:00,
2013-02-03 08:00:00,39.3,34.0,30.24,NNW,341,0.0,0.0,81,0.00,,CLR,0.00,VWS V14.01,2013-02-03 14:00:00,
2013-02-03 08:05:00,40.1,35.1,30.24,NNW,341,0.0,0.0,82,0.00,,CLR,0.00,VWS V14.01,2013-02-03 14:05:00,
2013-02-03 08:10:00,42.5,37.1,30.24,NNW,341,0.0,0.0,81,0.00,,CLR,0.00,VWS V14.01,2013-02-03 14:10:00,
2013-02-03 08:15:00,43.9,38.1,30.24,NNW,341,0.0,0.0,80,0.00,,CLR,0.00,VWS V14.01,2013-02-03 14:15:00,
2013-02-03 08:20:00,45.5,39.4,30.24,NNW,341,0.0,0.0,79,0.00,,CLR,0.00,VWS V14.01,2013-02-03 14:20:00,
2013-02-03 08:25:00,46.7,38.5,30.24,NNW,341,0.0,0.0,73,0.00,,CLR,0.00,VWS V14.01,2013-02-03 14:25:00,
2013-02-03 08:30:00,47.7,38.0,30.24,NNW,341,0.0,0.0,69,0.00,,CLR,0.00,VWS V14.01,2013-02-03 14:30:00,
2013-02-03 08:35:00,48.3,39.0,30.24,NNW,341,0.0,0.0,70,0.00,,CLR,0.00,VWS V14.01,2013-02-03 14:35:00,
2013-02-03 08:40:00,49.6,39.5,30.24,NNW,341,0.0,0.0,68,0.00,,CLR,0.00,VWS V14.01,2013-02-03 14:40:00,
2013-02-03 08:45:00,50.2,38.9,30.24,NNW,341,0.0,0.0,65,0.00,,CLR,0.00,VWS V14.01,2013-02-03 14:45:00,
2013-02-03 08:50:00,50.7,39.4,30.24,NNW,341,0.0,0.0,65,0.00,,CLR,0.00,VWS V14.01,2013-02-03 14:50:00,
2013-02-03 08:55:00,51.3,40.0,30.24,NNW,341,0.0,0.0,65,0.00,,CLR,0.00,VWS V14.01,2013-02-03 14:55:00,
2013-02-03 09:00:00,51.9,39.7,30.25,West,259,0.0,0.0,63,0.00,,CLR,0.00,VWS V14.01,2013-02-03 15:00:00,
2013-02-03 09:05:00,52.3,41.3,30.25,WSW,256,0.0,0.0,66,0.00,,CLR,0.00,VWS V14.01,2013-02-03 15:05:00,
2013-02-03 09:10:00,52.3,42.5,30.25,WSW,256,0.0,0.0,69,0.00,,CLR,0.00,VWS V14.01,2013-02-03 15:10:00,
2013-02-03 09:15:00,51.7,41.9,30.25,WSW,245,4.0,5.0,69,0.00,,CLR,0.00,VWS V14.01,2013-02-03 15:15:00,
2013-02-03 09:20:00,51.3,42.2,30.25,WSW,245,3.0,3.0,71,0.00,,CLR,0.00,VWS V14.01,2013-02-03 15:20:00,
2013-02-03 09:25:00,51.4,42.7,30.25,WSW,245,0.0,3.0,72,0.00,,CLR,0.00,VWS V14.01,2013-02-03 15:25:00,
2013-02-03 09:30:00,51.7,42.6,30.25,WSW,245,0.0,0.0,71,0.00,,CLR,0.00,VWS V14.01,2013-02-03 15:30:00,
2013-02-03 09:35:00,52.0,42.2,30.25,WSW,245,0.0,5.0,69,0.00,,CLR,0.00,VWS V14.01,2013-02-03 15:35:00,
2013-02-03 09:40:00,52.6,42.7,30.25,WSW,245,0.0,0.0,69,0.00,,CLR,0.00,VWS V14.01,2013-02-03 15:40:00,
2013-02-03 09:45:00,52.8,42.2,30.25,WSW,245,2.0,3.0,67,0.00,,CLR,0.00,VWS V14.01,2013-02-03 15:45:00,
2013-02-03 09:50:00,52.9,41.5,30.25,WSW,245,0.0,0.0,65,0.00,,CLR,0.00,VWS V14.01,2013-02-03 15:50:00,
2013-02-03 09:55:00,53.1,41.7,30.25,WSW,245,3.0,4.0,65,0.00,,CLR,0.00,VWS V14.01,2013-02-03 15:55:00,
2013-02-03 10:00:00,53.9,40.8,30.25,WSW,244,2.0,2.0,61,0.00,,CLR,0.00,VWS V14.01,2013-02-03 16:00:00,
2013-02-03 10:05:00,54.5,40.9,30.25,WSW,244,0.0,4.0,60,0.00,,CLR,0.00,VWS V14.01,2013-02-03 16:05:00,
2013-02-03 10:10:00,55.1,41.0,30.25,WSW,244,0.0,2.0,59,0.00,,CLR,0.00,VWS V14.01,2013-02-03 16:10:00,
2013-02-03 10:15:00,55.7,41.2,30.25,WSW,244,0.0,3.0,58,0.00,,CLR,0.00,VWS V14.01,2013-02-03 16:15:00,
2013-02-03 10:20:00,56.3,40.8,30.25,WSW,244,0.0,0.0,56,0.00,,CLR,0.00,VWS V14.01,2013-02-03 16:20:00,
2013-02-03 10:25:00,57.3,41.8,30.25,WSW,244,0.0,0.0,56,0.00,,CLR,0.00,VWS V14.01,2013-02-03 16:25:00,
2013-02-03 10:30:00,57.5,41.0,30.25,WSW,244,0.0,0.0,54,0.00,,CLR,0.00,VWS V14.01,2013-02-03 16:30:00,
2013-02-03 10:35:00,58.1,41.1,30.25,WSW,244,0.0,2.0,53,0.00,,CLR,0.00,VWS V14.01,2013-02-03 16:35:00,
2013-02-03 10:40:00,58.9,41.3,30.25,WSW,244,0.0,0.0,52,0.00,,CLR,0.00,VWS V14.01,2013-02-03 16:40:00,
2013-02-03 10:45:00,59.5,41.9,30.25,WSW,244,0.0,1.0,52,0.00,,CLR,0.00,VWS V14.01,2013-02-03 16:45:00,
2013-02-03 10:50:00,59.6,39.9,30.25,SSW,202,0.0,3.0,48,0.00,,CLR,0.00,VWS V14.01,2013-02-03 16:50:00,
2013-02-03 10:56:00,60.1,40.9,30.25,SSW,203,0.0,3.0,49,0.00,,CLR,0.00,VWS V14.01,2013-02-03 16:56:00,
2013-02-03 11:01:00,59.8,39.5,30.24,SSW,202,1.0,2.0,47,0.00,,CLR,0.00,VWS V14.01,2013-02-03 17:01:00,
2013-02-03 11:06:00,60.1,40.4,30.24,SSW,203,1.0,3.0,48,0.00,,CLR,0.00,VWS V14.01,2013-02-03 17:06:00,
2013-02-03 11:11:00,60.4,40.1,30.24,SSW,203,0.0,0.0,47,0.00,,CLR,0.00,VWS V14.01,2013-02-03 17:11:00,
2013-02-03 11:16:00,61.2,40.8,30.23,SSW,203,1.0,2.0,47,0.00,,CLR,0.00,VWS V14.01,2013-02-03 17:16:00,
2013-02-03 11:21:00,61.6,39.5,30.23,SSW,205,4.0,5.0,44,0.00,,CLR,0.00,VWS V14.01,2013-02-03 17:21:00,
2013-02-03 11:26:00,61.8,39.7,30.23,SSW,202,2.0,6.0,44,0.00,,CLR,0.00,VWS V14.01,2013-02-03 17:26:00,
2013-02-03 11:31:00,62.1,38.1,30.23,SSW,202,3.0,3.0,41,0.00,,CLR,0.00,VWS V14.01,2013-02-03 17:31:00,
2013-02-03 11:36:00,62.1,38.1,30.23,SSW,202,0.0,5.0,41,0.00,,CLR,0.00,VWS V14.01,2013-02-03 17:36:00,
2013-02-03 11:41:00,62.4,37.1,30.23,SSW,195,0.0,1.0,39,0.00,,CLR,0.00,VWS V14.01,2013-02-03 17:41:00,
2013-02-03 11:46:00,63.4,38.7,30.22,SSW,194,0.0,3.0,40,0.00,,CLR,0.00,VWS V14.01,2013-02-03 17:46:00,
2013-02-03 11:51:00,63.2,37.2,30.22,SSW,196,3.0,6.0,38,0.00,,CLR,0.00,VWS V14.01,2013-02-03 17:51:00,
2013-02-03 11:56:00,63.5,38.1,30.22,SSW,196,0.0,6.0,39,0.00,,CLR,0.00,VWS V14.01,2013-02-03 17:56:00,
2013-02-03 12:01:00,64.3,37.5,30.22,SSW,204,2.0,6.0,37,0.00,,CLR,0.00,VWS V14.01,2013-02-03 18:01:00,
2013-02-03 12:06:00,64.8,37.9,30.22,SSW,204,0.0,6.0,37,0.00,,CLR,0.00,VWS V14.01,2013-02-03 18:06:00,
2013-02-03 12:11:00,64.7,35.0,30.22,SSW,195,2.0,6.0,33,0.00,,CLR,0.00,VWS V14.01,2013-02-03 18:11:00,
2013-02-03 12:16:00,64.7,35.7,30.20,South,188,0.0,6.0,34,0.00,,CLR,0.00,VWS V14.01,2013-02-03 18:16:00,
2013-02-03 12:21:00,65.2,33.0,30.20,South,190,0.0,6.0,30,0.00,,CLR,0.00,VWS V14.01,2013-02-03 18:21:00,
2013-02-03 12:26:00,65.3,32.3,30.20,South,178,0.0,6.0,29,0.00,,CLR,0.00,VWS V14.01,2013-02-03 18:26:00,
2013-02-03 12:31:00,66.3,34.0,30.20,South,179,1.0,5.0,30,0.00,,CLR,0.00,VWS V14.01,2013-02-03 18:31:00,
2013-02-03 12:36:00,65.6,32.5,30.20,South,183,0.0,5.0,29,0.00,,CLR,0.00,VWS V14.01,2013-02-03 18:36:00,
2013-02-03 12:41:00,66.6,35.0,30.20,South,186,0.0,6.0,31,0.00,,CLR,0.00,VWS V14.01,2013-02-03 18:41:00,
2013-02-03 12:46:00,66.4,33.2,30.18,South,186,1.0,6.0,29,0.00,,CLR,0.00,VWS V14.01,2013-02-03 18:46:00,
2013-02-03 12:51:00,66.8,33.5,30.18,South,186,0.0,4.0,29,0.00,,CLR,0.00,VWS V14.01,2013-02-03 18:51:00,
2013-02-03 12:56:00,67.1,33.8,30.18,South,175,0.0,5.0,29,0.00,,CLR,0.00,VWS V14.01,2013-02-03 18:56:00,
2013-02-03 13:01:00,67.4,33.2,30.17,South,176,0.0,1.0,28,0.00,,CLR,0.00,VWS V14.01,2013-02-03 19:01:00,
2013-02-03 13:06:00,67.6,33.4,30.17,South,188,4.0,6.0,28,0.00,,CLR,0.00,VWS V14.01,2013-02-03 19:06:00,
2013-02-03 13:11:00,67.4,33.2,30.17,South,173,1.0,4.0,28,0.00,,CLR,0.00,VWS V14.01,2013-02-03 19:11:00,
2013-02-03 13:16:00,67.1,31.1,30.16,South,173,0.0,4.0,26,0.00,,CLR,0.00,VWS V14.01,2013-02-03 19:16:00,
2013-02-03 13:21:00,67.3,32.2,30.16,South,183,0.0,3.0,27,0.00,,CLR,0.00,VWS V14.01,2013-02-03 19:21:00,
2013-02-03 13:26:00,67.6,32.5,30.16,South,177,0.0,3.0,27,0.00,,CLR,0.00,VWS V14.01,2013-02-03 19:26:00,
2013-02-03 13:31:00,68.1,32.9,30.15,SSE,150,1.0,5.0,27,0.00,,CLR,0.00,VWS V14.01,2013-02-03 19:31:00,
2013-02-03 13:36:00,67.4,31.4,30.15,SSE,148,3.0,5.0,26,0.00,,CLR,0.00,VWS V14.01,2013-02-03 19:36:00,
2013-02-03 13:41:00,67.6,30.6,30.15,SSE,148,0.0,2.0,25,0.00,,CLR,0.00,VWS V14.01,2013-02-03 19:41:00,
2013-02-03 13:46:00,68.6,32.4,30.14,SSE,157,3.0,5.0,26,0.00,,CLR,0.00,VWS V14.01,2013-02-03 19:46:00,
2013-02-03 13:51:00,67.9,29.8,30.14,SSE,161,0.0,4.0,24,0.00,,CLR,0.00,VWS V14.01,2013-02-03 19:51:00,
2013-02-03 13:56:00,67.8,31.7,30.14,SSE,162,2.0,4.0,26,0.00,,CLR,0.00,VWS V14.01,2013-02-03 19:56:00,
2013-02-03 14:01:00,68.1,32.9,30.13,SSE,163,0.0,0.0,27,0.00,,CLR,0.00,VWS V14.01,2013-02-03 20:01:00,
2013-02-03 14:07:00,68.9,31.7,30.13,SSE,164,0.0,5.0,25,0.00,,CLR,0.00,VWS V14.01,2013-02-03 20:07:00,
2013-02-03 14:11:00,68.9,29.6,30.13,SSE,165,0.0,4.0,23,0.00,,CLR,0.00,VWS V14.01,2013-02-03 20:11:00,
2013-02-03 14:17:00,68.8,30.6,30.12,SSW,205,0.0,7.0,24,0.00,,CLR,0.00,VWS V14.01,2013-02-03 20:17:00,
2013-02-03 14:22:00,68.9,31.7,30.12,SE,142,1.0,4.0,25,0.00,,CLR,0.00,VWS V14.01,2013-02-03 20:22:00,
2013-02-03 14:27:00,67.8,29.7,30.12,SE,136,0.0,4.0,24,0.00,,CLR,0.00,VWS V14.01,2013-02-03 20:27:00,
2013-02-03 14:32:00,67.9,30.8,30.11,SE,144,0.0,4.0,25,0.00,,CLR,0.00,VWS V14.01,2013-02-03 20:32:00,
2013-02-03 14:37:00,68.3,31.1,30.11,SE,144,0.0,4.0,25,0.00,,CLR,0.00,VWS V14.01,2013-02-03 20:37:00,
2013-02-03 14:42:00,68.1,30.0,30.11,SE,144,0.0,4.0,24,0.00,,CLR,0.00,VWS V14.01,2013-02-03 20:42:00,
2013-02-03 14:47:00,67.8,29.7,30.10,SE,144,1.0,4.0,24,0.00,,CLR,0.00,VWS V14.01,2013-02-03 20:47:00,
2013-02-03 14:52:00,68.1,28.9,30.10,SE,144,0.0,0.0,23,0.00,,CLR,0.00,VWS V14.01,2013-02-03 20:52:00,
2013-02-03 14:57:00,69.4,31.1,30.10,SE,124,2.0,3.0,24,0.00,,CLR,0.00,VWS V14.01,2013-02-03 20:57:00,
2013-02-03 15:02:00,69.6,30.2,30.09,SE,144,5.0,5.0,23,0.00,,CLR,0.00,VWS V14.01,2013-02-03 21:02:00,
2013-02-03 15:07:00,69.1,28.7,30.09,SSE,150,0.0,5.0,22,0.00,,CLR,0.00,VWS V14.01,2013-02-03 21:07:00,
2013-02-03 15:12:00,68.8,29.5,30.09,SE,144,2.0,3.0,23,0.00,,CLR,0.00,VWS V14.01,2013-02-03 21:12:00,
2013-02-03 15:17:00,68.9,28.5,30.09,SE,144,0.0,3.0,22,0.00,,CLR,0.00,VWS V14.01,2013-02-03 21:17:00,
2013-02-03 15:22:00,68.8,29.5,30.09,SE,144,0.0,2.0,23,0.00,,CLR,0.00,VWS V14.01,2013-02-03 21:22:00,
2013-02-03 15:27:00,68.9,28.5,30.09,SE,146,0.0,5.0,22,0.00,,CLR,0.00,VWS V14.01,2013-02-03 21:27:00,
2013-02-03 15:32:00,69.1,30.8,30.08,SE,146,0.0,2.0,24,0.00,,CLR,0.00,VWS V14.01,2013-02-03 21:32:00,
2013-02-03 15:37:00,68.6,28.3,30.08,SE,146,2.0,4.0,22,0.00,,CLR,0.00,VWS V14.01,2013-02-03 21:37:00,
2013-02-03 15:42:00,68.8,28.4,30.08,SE,137,2.0,4.0,22,0.00,,CLR,0.00,VWS V14.01,2013-02-03 21:42:00,
2013-02-03 15:47:00,68.6,28.3,30.07,SE,137,0.0,4.0,22,0.00,,CLR,0.00,VWS V14.01,2013-02-03 21:47:00,
2013-02-03 15:52:00,68.9,29.6,30.07,SE,137,2.0,4.0,23,0.00,,CLR,0.00,VWS V14.01,2013-02-03 21:52:00,
2013-02-03 15:57:00,69.1,30.8,30.07,SE,138,1.0,4.0,24,0.00,,CLR,0.00,VWS V14.01,2013-02-03 21:57:00,
2013-02-03 16:02:00,69.1,29.8,30.06,SE,138,1.0,4.0,23,0.00,,CLR,0.00,VWS V14.01,2013-02-03 22:02:00,
2013-02-03 16:07:00,68.6,28.3,30.06,SE,137,1.0,4.0,22,0.00,,CLR,0.00,VWS V14.01,2013-02-03 22:07:00,
2013-02-03 16:12:00,68.6,29.4,30.06,SE,135,1.0,1.0,23,0.00,,CLR,0.00,VWS V14.01,2013-02-03 22:12:00,
2013-02-03 16:17:00,68.4,30.2,30.05,SE,128,0.0,3.0,24,0.00,,CLR,0.00,VWS V14.01,2013-02-03 22:17:00,
2013-02-03 16:22:00,68.3,30.1,30.05,SE,128,0.0,0.0,24,0.00,,CLR,0.00,VWS V14.01,2013-02-03 22:22:00,
2013-02-03 16:27:00,67.9,29.8,30.05,SE,128,0.0,0.0,24,0.00,,CLR,0.00,VWS V14.01,2013-02-03 22:27:00,
2013-02-03 16:32:00,67.1,32.0,30.05,SE,128,0.0,0.0,27,0.00,,CLR,0.00,VWS V14.01,2013-02-03 22:32:00,
2013-02-03 16:37:00,66.9,30.0,30.05,SE,128,0.0,0.0,25,0.00,,CLR,0.00,VWS V14.01,2013-02-03 22:37:00,
2013-02-03 16:42:00,66.6,30.7,30.05,SE,128,0.0,0.0,26,0.00,,CLR,0.00,VWS V14.01,2013-02-03 22:42:00,
2013-02-03 16:47:00,66.0,31.1,30.05,SE,128,0.0,1.0,27,0.00,,CLR,0.00,VWS V14.01,2013-02-03 22:47:00,
2013-02-03 16:52:00,65.8,31.8,30.05,SE,128,0.0,2.0,28,0.00,,CLR,0.00,VWS V14.01,2013-02-03 22:52:00,
2013-02-03 16:57:00,65.6,31.6,30.05,SE,128,1.0,2.0,28,0.00,,CLR,0.00,VWS V14.01,2013-02-03 22:57:00,
2013-02-03 17:02:00,65.5,31.6,30.04,SE,146,0.0,4.0,28,0.00,,CLR,0.00,VWS V14.01,2013-02-03 23:02:00,
2013-02-03 17:07:00,65.5,34.1,30.04,SSE,148,0.0,4.0,31,0.00,,CLR,0.00,VWS V14.01,2013-02-03 23:07:00,
2013-02-03 17:12:00,65.8,32.7,30.04,SSE,148,0.0,4.0,29,0.00,,CLR,0.00,VWS V14.01,2013-02-03 23:12:00,
2013-02-03 17:17:00,65.8,33.5,30.03,SSE,150,1.0,6.0,30,0.00,,CLR,0.00,VWS V14.01,2013-02-03 23:17:00,
2013-02-03 17:22:00,65.6,34.2,30.03,SSE,150,0.0,3.0,31,0.00,,CLR,0.00,VWS V14.01,2013-02-03 23:22:00,
2013-02-03 17:27:00,65.2,33.0,30.03,SSE,150,0.0,3.0,30,0.00,,CLR,0.00,VWS V14.01,2013-02-03 23:27:00,
2013-02-03 17:32:00,64.8,32.7,30.03,SSE,150,0.0,2.0,30,0.00,,CLR,0.00,VWS V14.01,2013-02-03 23:32:00,
2013-02-03 17:37:00,64.5,32.4,30.03,SSE,150,0.0,2.0,30,0.00,,CLR,0.00,VWS V14.01,2013-02-03 23:37:00,
2013-02-03 17:43:00,64.5,33.2,30.03,SSE,150,0.0,4.0,31,0.00,,CLR,0.00,VWS V14.01,2013-02-03 23:43:00,
2013-02-03 17:48:00,64.5,33.2,30.03,SSE,157,7.0,10.0,31,0.00,,CLR,0.00,VWS V14.01,2013-02-03 23:48:00,
2013-02-03 17:53:00,64.5,34.0,30.03,South,181,6.0,10.0,32,0.00,,CLR,0.00,VWS V14.01,2013-02-03 23:53:00,
2013-02-03 17:58:00,64.3,32.2,30.03,South,173,4.0,10.0,30,0.00,,CLR,0.00,VWS V14.01,2013-02-03 23:58:00,
2013-02-03 18:03:00,64.3,33.0,30.03,South,175,4.0,6.0,31,0.00,,CLR,0.00,VWS V14.01,2013-02-04 00:03:00,
2013-02-03 18:08:00,64.2,32.2,30.03,South,172,0.0,6.0,30,0.00,,CLR,0.00,VWS V14.01,2013-02-04 00:08:00,
2013-02-03 18:13:00,64.0,32.0,30.03,South,169,2.0,4.0,30,0.00,,CLR,0.00,VWS V14.01,2013-02-04 00:13:00,
2013-02-03 18:18:00,63.9,31.9,30.03,South,170,3.0,4.0,30,0.00,,CLR,0.00,VWS V14.01,2013-02-04 00:18:00,
2013-02-03 18:23:00,63.7,31.7,30.03,South,170,0.0,3.0,30,0.00,,CLR,0.00,VWS V14.01,2013-02-04 00:23:00,
2013-02-03 18:28:00,63.5,32.3,30.03,South,170,0.0,4.0,31,0.00,,CLR,0.00,VWS V14.01,2013-02-04 00:28:00,
2013-02-03 18:33:00,63.4,32.3,30.03,South,170,2.0,2.0,31,0.00,,CLR,0.00,VWS V14.01,2013-02-04 00:33:00,
2013-02-03 18:38:00,63.2,33.6,30.03,South,171,0.0,5.0,33,0.00,,CLR,0.00,VWS V14.01,2013-02-04 00:38:00,
2013-02-03 18:43:00,62.9,34.8,30.03,South,171,0.0,0.0,35,0.00,,CLR,0.00,VWS V14.01,2013-02-04 00:43:00,
2013-02-03 18:48:00,62.7,34.0,30.03,South,171,0.0,3.0,34,0.00,,CLR,0.00,VWS V14.01,2013-02-04 00:48:00,
2013-02-03 18:53:00,62.4,34.4,30.03,South,171,0.0,1.0,35,0.00,,CLR,0.00,VWS V14.01,2013-02-04 00:53:00,
2013-02-03 18:58:00,62.1,34.2,30.03,South,171,0.0,1.0,35,0.00,,CLR,0.00,VWS V14.01,2013-02-04 00:58:00,
2013-02-03 19:03:00,62.0,34.1,30.03,South,171,0.0,1.0,35,0.00,,CLR,0.00,VWS V14.01,2013-02-04 01:03:00,
2013-02-03 19:08:00,61.8,35.3,30.03,South,171,0.0,3.0,37,0.00,,CLR,0.00,VWS V14.01,2013-02-04 01:08:00,
2013-02-03 19:13:00,61.5,35.0,30.03,South,171,0.0,0.0,37,0.00,,CLR,0.00,VWS V14.01,2013-02-04 01:13:00,
2013-02-03 19:18:00,61.2,34.7,30.03,South,171,0.0,2.0,37,0.00,,CLR,0.00,VWS V14.01,2013-02-04 01:18:00,
2013-02-03 19:23:00,61.0,35.9,30.03,South,171,0.0,0.0,39,0.00,,CLR,0.00,VWS V14.01,2013-02-04 01:23:00,
2013-02-03 19:28:00,60.7,35.6,30.03,South,171,0.0,1.0,39,0.00,,CLR,0.00,VWS V14.01,2013-02-04 01:28:00,
2013-02-03 19:33:00,60.5,36.1,30.03,South,171,0.0,0.0,40,0.00,,CLR,0.00,VWS V14.01,2013-02-04 01:33:00,
2013-02-03 19:38:00,60.4,36.0,30.03,South,171,0.0,1.0,40,0.00,,CLR,0.00,VWS V14.01,2013-02-04 01:38:00,
2013-02-03 19:43:00,60.1,36.3,30.03,South,171,0.0,1.0,41,0.00,,CLR,0.00,VWS V14.01,2013-02-04 01:43:00,
2013-02-03 19:48:00,59.9,36.2,30.03,South,171,0.0,1.0,41,0.00,,CLR,0.00,VWS V14.01,2013-02-04 01:48:00,
2013-02-03 19:53:00,59.8,36.1,30.03,South,171,0.0,0.0,41,0.00,,CLR,0.00,VWS V14.01,2013-02-04 01:53:00,
2013-02-03 19:58:00,59.8,36.1,30.03,South,171,0.0,0.0,41,0.00,,CLR,0.00,VWS V14.01,2013-02-04 01:58:00,
2013-02-03 20:03:00,59.8,38.4,30.02,South,171,0.0,0.0,45,0.00,,CLR,0.00,VWS V14.01,2013-02-04 02:03:00,
2013-02-03 20:08:00,59.5,37.6,30.02,South,171,0.0,0.0,44,0.00,,CLR,0.00,VWS V14.01,2013-02-04 02:08:00,
2013-02-03 20:13:00,59.3,36.8,30.02,South,171,0.0,0.0,43,0.00,,CLR,0.00,VWS V14.01,2013-02-04 02:13:00,
2013-02-03 20:18:00,59.2,36.7,30.02,South,171,0.0,0.0,43,0.00,,CLR,0.00,VWS V14.01,2013-02-04 02:18:00,
2013-02-03 20:23:00,59.2,39.0,30.02,South,171,0.0,0.0,47,0.00,,CLR,0.00,VWS V14.01,2013-02-04 02:23:00,
2013-02-03 20:28:00,58.9,37.6,30.02,South,171,0.0,0.0,45,0.00,,CLR,0.00,VWS V14.01,2013-02-04 02:28:00,
2013-02-03 20:33:00,58.6,37.3,30.01,South,171,0.0,0.0,45,0.00,,CLR,0.00,VWS V14.01,2013-02-04 02:33:00,
2013-02-03 20:38:00,58.3,38.7,30.01,South,171,0.0,0.0,48,0.00,,CLR,0.00,VWS V14.01,2013-02-04 02:38:00,
2013-02-03 20:43:00,58.1,38.5,30.01,South,171,0.0,0.0,48,0.00,,CLR,0.00,VWS V14.01,2013-02-04 02:43:00,
2013-02-03 20:48:00,57.8,37.7,30.01,South,171,0.0,0.0,47,0.00,,CLR,0.00,VWS V14.01,2013-02-04 02:48:00,
2013-02-03 20:53:00,57.5,36.9,30.01,South,171,0.0,0.0,46,0.00,,CLR,0.00,VWS V14.01,2013-02-04 02:53:00,
2013-02-03 20:58:00,57.3,37.3,30.01,South,171,0.0,0.0,47,0.00,,CLR,0.00,VWS V14.01,2013-02-04 02:58:00,
2013-02-03 21:03:00,57.2,37.7,30.00,South,171,0.0,0.0,48,0.00,,CLR,0.00,VWS V14.01,2013-02-04 03:03:00,
2013-02-03 21:08:00,57.2,38.2,30.00,South,171,0.0,0.0,49,0.00,,CLR,0.00,VWS V14.01,2013-02-04 03:08:00,
2013-02-03 21:13:00,57.0,38.0,30.00,South,171,0.0,0.0,49,0.00,,CLR,0.00,VWS V14.01,2013-02-04 03:13:00,
2013-02-03 21:18:00,56.9,38.0,30.00,South,171,0.0,0.0,49,0.00,,CLR,0.00,VWS V14.01,2013-02-04 03:18:00,
2013-02-03 21:23:00,56.9,38.5,30.00,South,171,0.0,0.0,50,0.00,,CLR,0.00,VWS V14.01,2013-02-04 03:23:00,
2013-02-03 21:28:00,56.9,39.0,30.00,South,171,0.0,0.0,51,0.00,,CLR,0.00,VWS V14.01,2013-02-04 03:28:00,
2013-02-03 21:33:00,56.7,38.8,29.99,South,171,0.0,3.0,51,0.00,,CLR,0.00,VWS V14.01,2013-02-04 03:33:00,
2013-02-03 21:38:00,56.6,37.7,29.99,South,171,0.0,3.0,49,0.00,,CLR,0.00,VWS V14.01,2013-02-04 03:38:00,
2013-02-03 21:43:00,56.6,38.2,29.99,SSE,155,0.0,4.0,50,0.00,,CLR,0.00,VWS V14.01,2013-02-04 03:43:00,
2013-02-03 21:48:00,56.7,37.8,29.98,SE,138,0.0,4.0,49,0.00,,CLR,0.00,VWS V14.01,2013-02-04 03:48:00,
2013-02-03 21:54:00,56.7,37.2,29.98,SE,138,0.0,3.0,48,0.00,,CLR,0.00,VWS V14.01,2013-02-04 03:54:00,
2013-02-03 21:59:00,56.9,38.0,29.98,SE,136,0.0,3.0,49,0.00,,CLR,0.00,VWS V14.01,2013-02-04 03:59:00,
2013-02-03 22:04:00,56.9,37.4,29.98,SE,136,0.0,0.0,48,0.00,,CLR,0.00,VWS V14.01,2013-02-04 04:04:00,
2013-02-03 22:09:00,57.0,37.5,29.98,SE,136,0.0,2.0,48,0.00,,CLR,0.00,VWS V14.01,2013-02-04 04:09:00,
2013-02-03 22:14:00,57.0,37.0,29.98,SE,136,0.0,2.0,47,0.00,,CLR,0.00,VWS V14.01,2013-02-04 04:14:00,
2013-02-03 22:19:00,57.0,37.0,29.97,SE,136,2.0,3.0,47,0.00,,CLR,0.00,VWS V14.01,2013-02-04 04:19:00,
2013-02-03 22:24:00,57.2,37.2,29.97,SE,136,0.0,3.0,47,0.00,,CLR,0.00,VWS V14.01,2013-02-04 04:24:00,
2013-02-03 22:29:00,57.2,36.6,29.97,SE,136,0.0,3.0,46,0.00,,CLR,0.00,VWS V14.01,2013-02-04 04:29:00,
2013-02-03 22:34:00,57.2,36.6,29.96,SE,130,0.0,1.0,46,0.00,,CLR,0.00,VWS V14.01,2013-02-04 04:34:00,
2013-02-03 22:39:00,57.2,36.6,29.96,ESE,109,0.0,5.0,46,0.00,,CLR,0.00,VWS V14.01,2013-02-04 04:39:00,
2013-02-03 22:44:00,57.2,36.1,29.96,ESE,110,0.0,2.0,45,0.00,,CLR,0.00,VWS V14.01,2013-02-04 04:44:00,
2013-02-03 22:49:00,57.2,36.1,29.96,ESE,107,0.0,4.0,45,0.00,,CLR,0.00,VWS V14.01,2013-02-04 04:49:00,
2013-02-03 22:54:00,57.2,36.6,29.96,SE,126,2.0,3.0,46,0.00,,CLR,0.00,VWS V14.01,2013-02-04 04:54:00,
2013-02-03 22:59:00,57.2,36.6,29.96,SE,126,0.0,3.0,46,0.00,,CLR,0.00,VWS V14.01,2013-02-04 04:59:00,
2013-02-03 23:00:00,57.2,36.6,29.96,SE,126,0.0,3.0,46,0.00,,CLR,0.00,VWS V14.01,2013-02-04 05:00:00,
2013-02-03 23:01:00,57.2,36.6,29.96,SE,126,0.0,0.0,46,0.00,,CLR,0.00,VWS V14.01,2013-02-04 05:01:00,
2013-02-03 23:03:00,57.2,37.2,29.96,SE,126,0.0,0.0,47,0.00,,CLR,0.00,VWS V14.01,2013-02-04 05:03:00,
2013-02-03 23:08:00,57.2,37.7,29.96,ESE,123,1.0,1.0,48,0.00,,CLR,0.00,VWS V14.01,2013-02-04 05:08:00,
2013-02-03 23:13:00,57.0,37.0,29.96,SE,130,0.0,3.0,47,0.00,,CLR,0.00,VWS V14.01,2013-02-04 05:13:00,
2013-02-03 23:18:00,57.0,37.0,29.96,SE,146,2.0,3.0,47,0.00,,CLR,0.00,VWS V14.01,2013-02-04 05:18:00,
2013-02-03 23:23:00,57.0,37.0,29.96,SE,138,0.0,3.0,47,0.00,,CLR,0.00,VWS V14.01,2013-02-04 05:23:00,
2013-02-03 23:28:00,57.0,37.5,29.96,SSE,157,0.0,5.0,48,0.00,,CLR,0.00,VWS V14.01,2013-02-04 05:28:00,
2013-02-03 23:33:00,57.0,37.5,29.95,SSE,152,0.0,4.0,48,0.00,,CLR,0.00,VWS V14.01,2013-02-04 05:33:00,
2013-02-03 23:38:00,57.0,37.0,29.95,SE,142,0.0,4.0,47,0.00,,CLR,0.00,VWS V14.01,2013-02-04 05:38:00,
2013-02-03 23:43:00,56.9,36.3,29.95,SE,140,0.0,4.0,46,0.00,,CLR,0.00,VWS V14.01,2013-02-04 05:43:00,
2013-02-03 23:48:00,56.9,36.9,29.94,SE,140,0.0,4.0,47,0.00,,CLR,0.00,VWS V14.01,2013-02-04 05:48:00,
2013-02-03 23:53:00,56.9,36.9,29.94,SE,140,0.0,0.0,47,0.00,,CLR,0.00,VWS V14.01,2013-02-04 05:53:00,
2013-02-03 23:58:00,56.9,36.9,29.94,SE,140,0.0,0.0,47,0.00,,CLR,0.00,VWS V14.01,2013-02-04 05:58:00,